{"data":{"norad_id":65139,"epoch":"2026-05-25T01:28:55.238016Z","epoch_age_seconds":69885,"freshness":"FRESH","line1":"1 65139U 25171H   26145.06175044  .00001948  00000+0  28437-3 0  9993","line2":"2 65139  51.8997 172.8454 0000331  73.8276 286.2723 14.79941044 44300","mean_motion":14.79941044,"eccentricity":3.31e-5,"inclination_deg":51.8997,"raan_deg":172.8454,"arg_perigee_deg":73.8276,"mean_anomaly_deg":286.2723,"bstar":0.00028437,"rev_number":4430,"period_min":97.301173302685,"perigee_km":629.27828325179,"apogee_km":629.74218949884,"semimajor_km":7007.6472363753,"source":"CELESTRAK","updated_at":"2026-05-25T13:38:05.166491Z"}}